STARLINK-1080 (44961 NORAD) Tracking and Keplerian Element Data

This shows tracking and keplerian element data for the satellite.

Feedback or suggestion? Click here.




ElementValue
Catalog44961
NameSTARLINK-1080
Epoch Orbit176
Epoch Day189.91668981
Epoch Year2020
RAAN242.6642
Inclination53.0025
Eccentricity9.66E-05
Argument of Perigee110.2914
Mean Anonmoly286.738
Mean Motion15.0557701
Decay Rate2.569E-05
L11 44961U 20001AZ 20189.91668981 .00002569 00000-0 19544-3 0 9993
L22 44961 53.0025 242.6642 0000966 110.2914 286.7380 15.05577010 1765

Live tracking and technical data element details for STARLINK-1080 (NORAD 44961). STARLINK-1080 can be tracked NOW for your location showing map with azimuth and elevation plus other details from your city location.

Track the satellite on the map from your city or location and see movement details for azimuth, elevation, latitude, longitude, range, height, and movement on the map or in text.







IsCatalogInMostPopularTable: catalog: 44961, numindb: 38
Update: records affected: 1



GetName: 44961 STARLINK-1080

Hit Count: updated at: Thu, 09 Jul 2020 02:02:49 GMT